QPF
0.06 0.09 0.09 0.08 0.08 0.10 0.18 0.18 0.12 0.09 0.10 0.09 0.08 0.06 0.04 0.04 0.04 0.03 0.04 0.04 0.04 0.04 0.03 0.02 0.02 0.02 0.02 0.02 0.02 0.02 0.03 0.03 0.03 0.02 0.03 0.03 0.02 0.01 0.01 0.02 0.03 0.03 0.03
0.06 0.08 0.09 0.10 0.08 0.08 0.12 0.12 0.10 0.08 0.06 0.06 0.07 0.08 0.05 0.03 0.03 0.03 0.04 0.04 0.04 0.04 0.03 0.02 0.02 0.03 0.03 0.03 0.03 0.03 0.03 0.02 0.02 0.02 0.01 0.01 0.01 0.02 0.02 0.03 0.04 0.03 0.02
0.12 0.12 0.13 0.12 0.09 0.07 0.08 0.08 0.08 0.06 0.05 0.05 0.06 0.06 0.05 0.04 0.04 0.04 0.05 0.06 0.06 0.05 0.04 0.03 0.02 0.02 0.02 0.03 0.03 0.04 0.03 0.02 0.02 0.02 0.01 0.01 0.02 0.02 0.03 0.02 0.03 0.03 0.02
0.07 0.10 0.11 0.09 0.08 0.06 0.06 0.05 0.06 0.06 0.05 0.06 0.06 0.06 0.06 0.05 0.05 0.08 0.06 0.06 0.05 0.05 0.03 0.03 0.03 0.02 0.02 0.02 0.03 0.04 0.04 0.03 0.03 0.02 0.02 0.02 0.02 0.01 0.01 0.01 0.01 0.01 0.01
0.06 0.05 0.05 0.06 0.06 0.05 0.04 0.04 0.05 0.06 0.05 0.06 0.06 0.05 0.06 0.07 0.08 0.10 0.07 0.06 0.05 0.05 0.04 0.03 0.02 0.02 0.01 0.01 0.03 0.04 0.04 0.03 0.03 0.02 0.02 0.02 0.02 0.02 0.02 0.02 0.02 0.01 0.01
0.09 0.08 0.06 0.05 0.04 0.05 0.05 0.05 0.04 0.06 0.05 0.06 0.05 0.05 0.06 0.07 0.08 0.09 0.07 0.07 0.07 0.05 0.05 0.04 0.03 0.02 0.02 0.03 0.03 0.04 0.04 0.04 0.04 0.03 0.03 0.03 0.03 0.03 0.02 0.02 0.02 0.02 0.02
0.10 0.10 0.09 0.07 0.05 0.03 0.03 0.04 0.05 0.06 0.07 0.07 0.06 0.07 0.08 0.09 0.08 0.06 0.06 0.07 0.07 0.06 0.06 0.06 0.05 0.05 0.05 0.05 0.07 0.07 0.06 0.07 0.07 0.06 0.05 0.04 0.03 0.03 0.03 0.03 0.02 0.02 0.02
0.12 0.12 0.10 0.08 0.07 0.05 0.05 0.05 0.06 0.07 0.07 0.07 0.07 0.08 0.09 0.09 0.10 0.08 0.08 0.07 0.08 0.08 0.06 0.06 0.05 0.05 0.05 0.06 0.06 0.06 0.06 0.07 0.07 0.07 0.07 0.06 0.06 0.05 0.04 0.04 0.03 0.02 0.02
0.11 0.10 0.09 0.07 0.06 0.06 0.06 0.06 0.05 0.05 0.05 0.05 0.07 0.07 0.07 0.07 0.06 0.08 0.08 0.08 0.08 0.08 0.08 0.07 0.05 0.05 0.06 0.06 0.04 0.04 0.05 0.07 0.07 0.08 0.09 0.08 0.07 0.05 0.05 0.04 0.04 0.04 0.04
0.11 0.09 0.09 0.07 0.06 0.06 0.06 0.06 0.06 0.05 0.05 0.06 0.07 0.06 0.05 0.05 0.07 0.07 0.04 0.04 0.06 0.07 0.07 0.07 0.07 0.07 0.07 0.06 0.07 0.06 0.06 0.06 0.06 0.05 0.05 0.06 0.05 0.05 0.05 0.04 0.04 0.04 0.04
0.10 0.09 0.09 0.09 0.08 0.07 0.07 0.07 0.05 0.05 0.06 0.06 0.07 0.08 0.08 0.06 0.08 0.06 0.03 0.03 0.04 0.04 0.04 0.05 0.07 0.09 0.08 0.06 0.06 0.07 0.08 0.05 0.04 0.03 0.03 0.03 0.04 0.05 0.06 0.07 0.05 0.04 0.04
0.08 0.07 0.07 0.09 0.11 0.11 0.09 0.08 0.05 0.05 0.05 0.05 0.06 0.07 0.07 0.06 0.06 0.06 0.03 0.02 0.02 0.02 0.02 0.04 0.05 0.06 0.07 0.05 0.04 0.05 0.05 0.04 0.05 0.05 0.05 0.04 0.04 0.05 0.06 0.06 0.06 0.05 0.03
0.04 0.04 0.06 0.09 0.11 0.11 0.09 0.07 0.06 0.05 0.06 0.06 0.06 0.07 0.07 0.06 0.06 0.06 0.05 0.04 0.03 0.02 0.02 0.03 0.03 0.03 0.03 0.04 0.04 0.04 0.04 0.06 0.06 0.05 0.05 0.04 0.04 0.03 0.04 0.05 0.05 0.06 0.06
0.06 0.05 0.04 0.04 0.05 0.08 0.07 0.05 0.06 0.06 0.07 0.08 0.07 0.07 0.07 0.06 0.08 0.08 0.09 0.09 0.07 0.04 0.04 0.04 0.04 0.03 0.03 0.04 0.05 0.05 0.05 0.06 0.07 0.07 0.06 0.06 0.05 0.04 0.03 0.03 0.04 0.04 0.04
0.07 0.06 0.05 0.05 0.06 0.06 0.05 0.04 0.04 0.04 0.06 0.07 0.08 0.09 0.10 0.08 0.07 0.08 0.10 0.11 0.12 0.09 0.04 0.04 0.04 0.05 0.05 0.05 0.08 0.08 0.06 0.06 0.07 0.08 0.08 0.07 0.06 0.05 0.05 0.04 0.04 0.03 0.03
0.08 0.08 0.05 0.05 0.05 0.04 0.04 0.04 0.03 0.04 0.04 0.05 0.06 0.07 0.06 0.06 0.07 0.10 0.14 0.13 0.13 0.13 0.07 0.04 0.04 0.04 0.05 0.05 0.09 0.12 0.09 0.08 0.07 0.08 0.09 0.08 0.07 0.07 0.06 0.05 0.04 0.04 0.04
0.06 0.10 0.09 0.06 0.05 0.05 0.04 0.03 0.03 0.03 0.04 0.05 0.05 0.06 0.05 0.06 0.06 0.07 0.10 0.15 0.15 0.14 0.12 0.06 0.05 0.06 0.04 0.03 0.06 0.06 0.08 0.11 0.12 0.10 0.07 0.06 0.06 0.07 0.06 0.04 0.03 0.03 0.04
0.04 0.09 0.14 0.12 0.08 0.06 0.04 0.03 0.02 0.02 0.04 0.05 0.06 0.06 0.05 0.06 0.07 0.08 0.09 0.11 0.12 0.12 0.12 0.08 0.07 0.08 0.08 0.07 0.08 0.06 0.06 0.06 0.07 0.07 0.06 0.06 0.06 0.05 0.05 0.04 0.03 0.03 0.03
0.04 0.06 0.10 0.13 0.11 0.07 0.05 0.04 0.04 0.03 0.03 0.04 0.05 0.05 0.05 0.07 0.06 0.06 0.07 0.07 0.09 0.10 0.09 0.07 0.05 0.05 0.05 0.04 0.06 0.05 0.05 0.05 0.05 0.05 0.05 0.04 0.04 0.04 0.04 0.04 0.04 0.04 0.04
0.05 0.05 0.07 0.09 0.11 0.10 0.08 0.07 0.06 0.04 0.03 0.04 0.04 0.04 0.06 0.06 0.05 0.05 0.05 0.06 0.07 0.07 0.07 0.06 0.04 0.04 0.04 0.04 0.05 0.04 0.03 0.03 0.03 0.05 0.05 0.03 0.03 0.03 0.04 0.04 0.04 0.04 0.04
0.07 0.06 0.06 0.07 0.10 0.13 0.11 0.08 0.07 0.05 0.04 0.06 0.05 0.05 0.05 0.05 0.04 0.04 0.05 0.06 0.09 0.09 0.07 0.06 0.05 0.04 0.03 0.03 0.03 0.03 0.02 0.03 0.02 0.02 0.03 0.03 0.03 0.02 0.02 0.03 0.03 0.03 0.04
0.10 0.08 0.07 0.07 0.07 0.07 0.09 0.09 0.07 0.06 0.05 0.05 0.05 0.06 0.07 0.06 0.05 0.05 0.05 0.07 0.07 0.08 0.08 0.08 0.07 0.06 0.04 0.04 0.03 0.03 0.03 0.03 0.02 0.02 0.03 0.03 0.03 0.03 0.03 0.03 0.02 0.02 0.02
0.06 0.07 0.07 0.08 0.07 0.06 0.07 0.08 0.08 0.07 0.06 0.04 0.05 0.06 0.05 0.04 0.05 0.04 0.04 0.05 0.04 0.06 0.09 0.09 0.09 0.07 0.06 0.04 0.05 0.05 0.03 0.03 0.02 0.02 0.04 0.03 0.03 0.03 0.03 0.03 0.03 0.03 0.02
0.04 0.05 0.06 0.07 0.06 0.07 0.09 0.08 0.08 0.08 0.06 0.07 0.06 0.04 0.03 0.04 0.05 0.04 0.05 0.05 0.04 0.06 0.07 0.08 0.09 0.08 0.07 0.05 0.06 0.05 0.05 0.05 0.04 0.04 0.04 0.03 0.02 0.03 0.03 0.04 0.04 0.04 0.03
0.03 0.03 0.04 0.05 0.06 0.07 0.08 0.09 0.08 0.07 0.06 0.05 0.04 0.04 0.03 0.03 0.03 0.03 0.04 0.04 0.05 0.05 0.07 0.08 0.09 0.07 0.06 0.05 0.05 0.05 0.05 0.05 0.04 0.03 0.04 0.04 0.03 0.03 0.04 0.05 0.06 0.06 0.06
0.04 0.04 0.04 0.05 0.06 0.06 0.07 0.07 0.07 0.05 0.04 0.03 0.04 0.04 0.03 0.02 0.02 0.02 0.03 0.03 0.04 0.04 0.04 0.05 0.05 0.06 0.06 0.05 0.04 0.03 0.03 0.05 0.04 0.03 0.03 0.04 0.04 0.04 0.05 0.04 0.05 0.06 0.07
MSLP
1017.40 1017.33 1017.19 1017.02 1016.89 1016.84 1016.88 1017.00 1017.18 1017.37 1017.52 1017.60 1017.60 1017.53 1017.40 1017.27 1017.15 1017.08 1017.05 1017.07 1017.11 1017.16 1017.19 1017.20 1017.19 1017.17 1017.15 1017.15 1017.18 1017.24 1017.33 1017.43 1017.54 1017.66 1017.77 1017.88 1017.98 1018.08 1018.16 1018.24 1018.29 1018.33 1018.34
1017.43 1017.37 1017.25 1017.10 1016.99 1016.95 1016.99 1017.10 1017.27 1017.44 1017.58 1017.65 1017.63 1017.54 1017.38 1017.20 1017.01 1016.86 1016.76 1016.71 1016.70 1016.72 1016.76 1016.79 1016.82 1016.83 1016.84 1016.86 1016.87 1016.90 1016.94 1017.01 1017.09 1017.19 1017.30 1017.43 1017.57 1017.70 1017.82 1017.91 1017.98 1018.02 1018.03
1017.41 1017.38 1017.31 1017.21 1017.15 1017.13 1017.18 1017.28 1017.42 1017.56 1017.67 1017.71 1017.66 1017.53 1017.33 1017.08 1016.82 1016.57 1016.38 1016.24 1016.17 1016.16 1016.18 1016.24 1016.31 1016.37 1016.42 1016.46 1016.47 1016.48 1016.49 1016.51 1016.55 1016.63 1016.73 1016.87 1017.03 1017.19 1017.35 1017.47 1017.56 1017.62 1017.63
1017.38 1017.39 1017.38 1017.35 1017.34 1017.36 1017.42 1017.51 1017.62 1017.72 1017.78 1017.77 1017.68 1017.51 1017.25 1016.94 1016.59 1016.26 1015.96 1015.73 1015.58 1015.52 1015.52 1015.59 1015.69 1015.79 1015.88 1015.94 1015.97 1015.96 1015.94 1015.92 1015.93 1015.97 1016.06 1016.19 1016.36 1016.55 1016.73 1016.89 1017.00 1017.07 1017.10
1017.34 1017.40 1017.45 1017.49 1017.54 1017.60 1017.66 1017.74 1017.81 1017.86 1017.87 1017.82 1017.69 1017.47 1017.17 1016.80 1016.39 1015.98 1015.59 1015.26 1015.03 1014.90 1014.86 1014.91 1015.01 1015.14 1015.25 1015.33 1015.37 1015.35 1015.31 1015.26 1015.22 1015.23 1015.29 1015.41 1015.58 1015.78 1015.98 1016.17 1016.30 1016.39 1016.43
1017.30 1017.39 1017.49 1017.59 1017.69 1017.77 1017.84 1017.89 1017.92 1017.92 1017.89 1017.80 1017.65 1017.42 1017.11 1016.71 1016.27 1015.79 1015.33 1014.92 1014.60 1014.39 1014.29 1014.29 1014.37 1014.49 1014.60 1014.69 1014.72 1014.69 1014.63 1014.55 1014.48 1014.45 1014.49 1014.59 1014.76 1014.96 1015.17 1015.36 1015.51 1015.60 1015.65
1017.24 1017.33 1017.46 1017.59 1017.71 1017.81 1017.87 1017.89 1017.89 1017.86 1017.80 1017.70 1017.55 1017.34 1017.05 1016.67 1016.23 1015.74 1015.24 1014.78 1014.38 1014.09 1013.91 1013.84 1013.86 1013.94 1014.02 1014.09 1014.10 1014.06 1013.97 1013.86 1013.77 1013.72 1013.73 1013.81 1013.96 1014.15 1014.35 1014.54 1014.69 1014.78 1014.82
1017.12 1017.19 1017.32 1017.46 1017.58 1017.67 1017.71 1017.71 1017.68 1017.62 1017.56 1017.48 1017.37 1017.21 1016.98 1016.68 1016.29 1015.83 1015.33 1014.84 1014.39 1014.02 1013.77 1013.61 1013.56 1013.57 1013.60 1013.61 1013.59 1013.52 1013.41 1013.28 1013.16 1013.09 1013.08 1013.14 1013.27 1013.44 1013.63 1013.81 1013.94 1014.03 1014.05
1016.91 1016.95 1017.05 1017.17 1017.27 1017.34 1017.36 1017.33 1017.28 1017.22 1017.17 1017.12 1017.08 1017.01 1016.88 1016.68 1016.39 1016.00 1015.55 1015.07 1014.61 1014.20 1013.87 1013.63 1013.49 1013.41 1013.37 1013.32 1013.25 1013.14 1013.00 1012.85 1012.71 1012.62 1012.60 1012.65 1012.76 1012.91 1013.09 1013.24 1013.36 1013.42 1013.43
1016.60 1016.61 1016.67 1016.75 1016.82 1016.85 1016.84 1016.79 1016.73 1016.67 1016.65 1016.66 1016.70 1016.73 1016.73 1016.65 1016.48 1016.20 1015.84 1015.41 1014.96 1014.53 1014.16 1013.86 1013.64 1013.48 1013.35 1013.23 1013.10 1012.95 1012.77 1012.60 1012.45 1012.35 1012.32 1012.36 1012.46 1012.60 1012.75 1012.89 1012.98 1013.02 1013.01
1016.23 1016.20 1016.22 1016.26 1016.29 1016.29 1016.24 1016.18 1016.11 1016.06 1016.07 1016.13 1016.25 1016.38 1016.49 1016.54 1016.50 1016.35 1016.09 1015.74 1015.34 1014.93 1014.55 1014.21 1013.93 1013.70 1013.50 1013.31 1013.12 1012.92 1012.72 1012.52 1012.36 1012.26 1012.22 1012.25 1012.34 1012.47 1012.61 1012.73 1012.81 1012.84 1012.80
1015.82 1015.76 1015.75 1015.75 1015.75 1015.71 1015.65 1015.56 1015.49 1015.46 1015.49 1015.59 1015.77 1015.97 1016.18 1016.34 1016.42 1016.38 1016.23 1015.98 1015.66 1015.30 1014.94 1014.60 1014.29 1014.01 1013.76 1013.52 1013.27 1013.03 1012.79 1012.58 1012.41 1012.30 1012.26 1012.29 1012.37 1012.50 1012.63 1012.74 1012.80 1012.82 1012.78
1015.42 1015.35 1015.32 1015.29 1015.26 1015.20 1015.12 1015.03 1014.96 1014.93 1014.98 1015.10 1015.31 1015.56 1015.82 1016.05 1016.21 1016.28 1016.23 1016.09 1015.86 1015.57 1015.27 1014.95 1014.65 1014.36 1014.07 1013.79 1013.51 1013.22 1012.96 1012.72 1012.54 1012.42 1012.37 1012.40 1012.48 1012.60 1012.72 1012.82 1012.88 1012.89 1012.85
1015.06 1014.99 1014.95 1014.91 1014.86 1014.79 1014.71 1014.63 1014.56 1014.54 1014.59 1014.71 1014.92 1015.17 1015.45 1015.72 1015.93 1016.06 1016.10 1016.04 1015.91 1015.72 1015.48 1015.23 1014.96 1014.68 1014.39 1014.09 1013.78 1013.47 1013.18 1012.92 1012.72 1012.58 1012.53 1012.54 1012.61 1012.71 1012.82 1012.92 1012.97 1012.98 1012.93
1014.74 1014.68 1014.64 1014.60 1014.55 1014.49 1014.43 1014.35 1014.30 1014.29 1014.33 1014.45 1014.63 1014.86 1015.12 1015.38 1015.60 1015.77 1015.87 1015.89 1015.85 1015.75 1015.60 1015.42 1015.21 1014.97 1014.70 1014.40 1014.08 1013.76 1013.44 1013.16 1012.93 1012.77 1012.69 1012.68 1012.73 1012.81 1012.90 1012.97 1013.01 1013.00 1012.96
1014.44 1014.40 1014.37 1014.34 1014.31 1014.28 1014.24 1014.20 1014.17 1014.17 1014.21 1014.30 1014.45 1014.64 1014.86 1015.08 1015.29 1015.47 1015.60 1015.69 1015.72 1015.71 1015.65 1015.56 1015.42 1015.23 1015.00 1014.72 1014.41 1014.07 1013.74 1013.43 1013.18 1012.99 1012.87 1012.82 1012.83 1012.87 1012.92 1012.95 1012.96 1012.94 1012.88
1014.13 1014.11 1014.10 1014.09 1014.10 1014.10 1014.10 1014.10 1014.11 1014.13 1014.17 1014.25 1014.37 1014.51 1014.68 1014.87 1015.05 1015.22 1015.37 1015.49 1015.59 1015.65 1015.68 1015.67 1015.60 1015.48 1015.29 1015.05 1014.75 1014.42 1014.09 1013.76 1013.48 1013.25 1013.09 1012.98 1012.93 1012.91 1012.90 1012.88 1012.85 1012.78 1012.70
1013.77 1013.78 1013.79 1013.82 1013.86 1013.92 1013.97 1014.02 1014.07 1014.12 1014.18 1014.25 1014.34 1014.45 1014.58 1014.72 1014.88 1015.03 1015.19 1015.35 1015.49 1015.61 1015.71 1015.77 1015.78 1015.72 1015.59 1015.39 1015.12 1014.81 1014.47 1014.14 1013.83 1013.56 1013.34 1013.18 1013.06 1012.96 1012.88 1012.79 1012.69 1012.57 1012.45
1013.35 1013.39 1013.44 1013.51 1013.60 1013.70 1013.81 1013.91 1014.00 1014.09 1014.16 1014.24 1014.32 1014.41 1014.52 1014.63 1014.77 1014.91 1015.08 1015.25 1015.42 1015.59 1015.74 1015.86 1015.93 1015.93 1015.86 1015.70 1015.48 1015.19 1014.87 1014.54 1014.21 1013.91 1013.64 1013.42 1013.22 1013.04 1012.87 1012.71 1012.53 1012.35 1012.17
1012.89 1012.96 1013.05 1013.17 1013.31 1013.46 1013.61 1013.76 1013.89 1014.00 1014.10 1014.19 1014.27 1014.36 1014.45 1014.56 1014.68 1014.83 1014.99 1015.17 1015.37 1015.57 1015.76 1015.92 1016.03 1016.08 1016.06 1015.96 1015.78 1015.53 1015.24 1014.92 1014.59 1014.27 1013.96 1013.67 1013.41 1013.15 1012.90 1012.65 1012.40 1012.15 1011.90
1012.40 1012.52 1012.66 1012.83 1013.01 1013.20 1013.39 1013.56 1013.71 1013.84 1013.96 1014.06 1014.15 1014.24 1014.34 1014.45 1014.58 1014.72 1014.89 1015.08 1015.29 1015.50 1015.71 1015.89 1016.04 1016.12 1016.14 1016.09 1015.96 1015.77 1015.51 1015.22 1014.90 1014.57 1014.24 1013.91 1013.59 1013.27 1012.95 1012.63 1012.30 1011.98 1011.68
1011.92 1012.10 1012.30 1012.51 1012.73 1012.94 1013.14 1013.32 1013.48 1013.62 1013.74 1013.84 1013.95 1014.05 1014.16 1014.29 1014.42 1014.58 1014.75 1014.94 1015.14 1015.35 1015.56 1015.75 1015.91 1016.02 1016.07 1016.06 1015.98 1015.84 1015.63 1015.38 1015.09 1014.77 1014.43 1014.08 1013.72 1013.35 1012.98 1012.60 1012.23 1011.85 1011.50
1011.50 1011.74 1011.98 1012.23 1012.47 1012.69 1012.89 1013.06 1013.20 1013.33 1013.44 1013.55 1013.66 1013.78 1013.91 1014.05 1014.20 1014.36 1014.54 1014.72 1014.91 1015.11 1015.30 1015.48 1015.63 1015.75 1015.83 1015.85 1015.82 1015.72 1015.56 1015.35 1015.10 1014.80 1014.48 1014.12 1013.75 1013.37 1012.96 1012.55 1012.14 1011.74 1011.34
1011.12 1011.41 1011.70 1011.97 1012.21 1012.42 1012.60 1012.75 1012.87 1012.97 1013.07 1013.18 1013.30 1013.44 1013.59 1013.75 1013.92 1014.09 1014.26 1014.44 1014.61 1014.77 1014.94 1015.09 1015.23 1015.34 1015.43 1015.47 1015.46 1015.41 1015.30 1015.13 1014.92 1014.65 1014.35 1014.02 1013.66 1013.27 1012.86 1012.45 1012.02 1011.60 1011.19
1010.77 1011.10 1011.40 1011.68 1011.92 1012.11 1012.26 1012.37 1012.46 1012.55 1012.64 1012.75 1012.89 1013.04 1013.22 1013.40 1013.59 1013.78 1013.95 1014.10 1014.25 1014.38 1014.51 1014.63 1014.74 1014.84 1014.91 1014.96 1014.98 1014.95 1014.87 1014.74 1014.56 1014.34 1014.07 1013.76 1013.43 1013.06 1012.67 1012.26 1011.85 1011.43 1011.01
1010.41 1010.74 1011.05 1011.31 1011.53 1011.69 1011.81 1011.90 1011.97 1012.05 1012.14 1012.27 1012.43 1012.62 1012.82 1013.04 1013.25 1013.44 1013.61 1013.75 1013.87 1013.98 1014.07 1014.15 1014.22 1014.29 1014.35 1014.40 1014.41 1014.40 1014.34 1014.24 1014.09 1013.90 1013.67 1013.39 1013.08 1012.75 1012.39 1012.01 1011.61 1011.20 1010.78
Thickness
5777 5776 5775 5775 5774 5774 5773 5772 5772 5771 5771 5771 5771 5771 5770 5769 5768 5768 5768 5767 5766 5764 5763 5761 5760 5758 5756 5754 5753 5751 5750 5748 5746 5744 5743 5741 5740 5739 5737 5736 5734 5733 5731
5778 5776 5775 5774 5774 5774 5773 5772 5771 5771 5770 5770 5770 5770 5770 5770 5769 5769 5768 5767 5766 5765 5763 5762 5760 5759 5757 5755 5753 5752 5751 5749 5748 5746 5744 5743 5741 5740 5738 5737 5735 5733 5732
5778 5777 5775 5773 5773 5773 5772 5771 5771 5770 5769 5769 5769 5769 5770 5769 5768 5768 5767 5767 5767 5765 5764 5762 5760 5759 5757 5756 5754 5753 5751 5750 5749 5747 5746 5744 5742 5741 5739 5737 5736 5734 5733
5778 5776 5775 5773 5773 5772 5771 5770 5769 5767 5767 5767 5766 5768 5768 5768 5767 5767 5767 5766 5766 5765 5764 5763 5761 5760 5758 5757 5755 5754 5752 5751 5749 5748 5746 5745 5743 5742 5740 5739 5737 5735 5734
5778 5776 5774 5773 5772 5771 5770 5769 5767 5766 5764 5764 5765 5766 5767 5766 5766 5766 5766 5766 5766 5765 5764 5763 5761 5760 5759 5757 5756 5754 5753 5751 5750 5748 5747 5745 5744 5742 5741 5739 5738 5736 5735
5777 5775 5773 5772 5771 5770 5768 5767 5766 5765 5764 5763 5764 5764 5764 5765 5765 5765 5766 5766 5765 5764 5763 5762 5761 5760 5759 5757 5756 5754 5753 5751 5750 5748 5747 5746 5744 5742 5741 5739 5738 5736 5735
5777 5775 5773 5772 5771 5769 5768 5766 5765 5762 5761 5761 5758 5756 5760 5763 5764 5764 5765 5765 5764 5764 5763 5762 5761 5759 5758 5757 5755 5753 5752 5751 5750 5749 5747 5746 5744 5742 5741 5739 5738 5736 5735
5777 5775 5773 5771 5770 5769 5767 5765 5763 5760 5759 5759 5754 5749 5746 5750 5757 5762 5762 5762 5762 5762 5762 5762 5760 5759 5758 5756 5756 5754 5753 5751 5750 5749 5747 5746 5744 5742 5741 5739 5737 5736 5735
5777 5775 5774 5772 5770 5769 5766 5764 5762 5759 5755 5756 5756 5749 5742 5740 5746 5754 5758 5760 5760 5760 5760 5760 5760 5758 5757 5756 5755 5754 5753 5751 5750 5748 5747 5746 5744 5742 5741 5739 5737 5736 5734
5776 5775 5774 5772 5770 5768 5766 5764 5763 5760 5756 5752 5753 5754 5751 5749 5742 5742 5750 5756 5758 5758 5758 5759 5758 5757 5756 5756 5755 5754 5753 5751 5749 5748 5747 5746 5744 5742 5740 5738 5737 5735 5734
5775 5774 5773 5771 5769 5768 5766 5764 5762 5759 5757 5754 5751 5750 5749 5748 5747 5741 5740 5747 5752 5756 5757 5757 5756 5756 5756 5755 5754 5753 5752 5751 5749 5748 5746 5745 5743 5742 5739 5738 5736 5734 5733
5773 5773 5772 5771 5769 5767 5765 5763 5761 5759 5757 5755 5753 5751 5748 5745 5743 5741 5739 5741 5743 5749 5753 5755 5755 5755 5755 5754 5753 5752 5751 5750 5748 5747 5745 5744 5742 5741 5739 5736 5735 5733 5731
5769 5770 5770 5769 5768 5766 5765 5763 5760 5758 5756 5754 5752 5751 5750 5749 5748 5744 5740 5738 5739 5743 5748 5750 5752 5752 5753 5752 5751 5749 5748 5747 5746 5744 5743 5742 5740 5738 5737 5734 5732 5731 5729
5769 5769 5768 5767 5766 5765 5763 5761 5759 5758 5756 5754 5753 5751 5749 5749 5748 5746 5741 5737 5734 5736 5739 5743 5747 5749 5749 5748 5748 5746 5745 5744 5742 5741 5740 5739 5737 5735 5734 5732 5730 5729 5727
5768 5767 5766 5765 5763 5762 5761 5759 5757 5755 5754 5752 5751 5749 5747 5747 5747 5746 5743 5740 5733 5729 5731 5738 5740 5745 5745 5744 5744 5743 5742 5741 5740 5738 5737 5735 5734 5732 5731 5729 5728 5726 5724
5765 5764 5763 5761 5760 5759 5758 5756 5754 5753 5751 5749 5748 5746 5745 5744 5743 5742 5741 5739 5736 5731 5729 5735 5736 5739 5739 5740 5739 5738 5737 5737 5736 5735 5733 5732 5731 5729 5727 5725 5724 5722 5721
5762 5760 5758 5757 5756 5755 5754 5752 5750 5749 5746 5745 5744 5742 5741 5741 5739 5738 5737 5735 5733 5730 5727 5731 5733 5734 5733 5733 5733 5732 5731 5731 5731 5730 5729 5728 5727 5725 5723 5721 5719 5718 5717
5758 5757 5755 5753 5751 5750 5749 5747 5745 5744 5742 5740 5739 5738 5736 5736 5733 5733 5732 5730 5729 5728 5724 5723 5725 5725 5725 5726 5726 5725 5726 5726 5725 5725 5725 5724 5722 5720 5718 5716 5715 5713 5712
5754 5753 5751 5748 5747 5746 5744 5743 5741 5740 5738 5736 5735 5733 5732 5730 5728 5727 5726 5725 5724 5724 5721 5719 5719 5719 5719 5720 5718 5718 5719 5719 5720 5720 5719 5718 5716 5714 5713 5711 5709 5708 5706
5749 5748 5746 5744 5743 5741 5739 5738 5737 5735 5733 5732 5731 5729 5728 5726 5724 5723 5722 5719 5718 5716 5715 5713 5712 5712 5711 5712 5710 5709 5709 5711 5711 5713 5713 5712 5710 5708 5707 5705 5704 5702 5701
5745 5743 5741 5739 5738 5736 5735 5733 5732 5730 5728 5726 5725 5725 5724 5723 5722 5720 5718 5714 5712 5709 5707 5705 5703 5703 5703 5702 5701 5702 5701 5702 5704 5705 5704 5704 5703 5701 5700 5699 5697 5696 5695
5739 5737 5735 5733 5732 5732 5731 5730 5727 5724 5722 5720 5719 5718 5719 5717 5716 5715 5713 5711 5709 5704 5701 5698 5696 5695 5696 5695 5695 5695 5693 5692 5694 5698 5696 5696 5696 5694 5694 5693 5692 5691 5689
5731 5729 5728 5727 5725 5725 5724 5723 5721 5718 5716 5714 5713 5711 5711 5711 5709 5707 5706 5704 5703 5702 5700 5696 5692 5691 5691 5691 5688 5687 5687 5686 5687 5690 5688 5687 5688 5687 5688 5688 5687 5685 5683
5723 5721 5720 5719 5718 5718 5717 5715 5714 5712 5709 5708 5707 5705 5703 5702 5702 5699 5698 5696 5694 5694 5693 5691 5689 5688 5688 5687 5685 5684 5682 5681 5682 5682 5681 5678 5679 5680 5682 5681 5680 5678 5677
5716 5714 5713 5712 5710 5709 5709 5707 5706 5703 5701 5700 5700 5699 5697 5696 5695 5693 5690 5687 5686 5685 5686 5685 5683 5682 5682 5681 5680 5676 5673 5671 5670 5672 5673 5670 5671 5671 5672 5672 5672 5671 5670
5708 5707 5705 5704 5702 5701 5700 5699 5697 5695 5693 5692 5691 5691 5691 5689 5688 5686 5682 5679 5677 5677 5677 5676 5674 5673 5673 5672 5672 5669 5667 5663 5662 5662 5665 5663 5662 5661 5659 5662 5662 5662 5661